Observations for Trim Patrick St
| Time | AQI | Temp °C | Hum % | Pres Pa | CO μg/m³ | H₂S μg/m³ | NO μg/m³ | NO₂ μg/m³ | O₃ μg/m³ | SO₂ μg/m³ | PM1 μg/m³ | PM2.5 μg/m³ | PM10 μg/m³ |
|---|---|---|---|---|---|---|---|---|---|---|---|---|---|
| Monday 3 August 2026 | |||||||||||||
| 01:34 | 2 | 15 | 82 | 38,460 | 0.2 | 1.12 | 1.51 | 22.18 | 30.95 | 0 | 7.14 | 10.62 | 11.68 |
| 01:33 | 2 | 15 | 83 | 38,460 | 0.19 | 1.32 | 1.62 | 28.53 | 28.65 | 0 | 6.29 | 11.29 | 12.42 |
| 01:32 | 2 | 15 | 83 | 38,460 | 0.2 | 1.19 | 1.77 | 24.05 | 25.34 | 0 | 6.29 | 10.59 | 11.65 |
| 01:31 | 2 | 15 | 83 | 38,460 | 0.21 | 1.53 | 1.85 | 25.72 | 28.12 | 0 | 7.14 | 11.29 | 12.41 |
| 01:30 | 2 | 15 | 83 | 38,460 | 0.19 | 1.87 | 1.93 | 24.29 | 25.97 | 0 | 6.29 | 10.59 | 11.65 |
| 01:29 | 2 | 15 | 83 | 38,460 | 0.21 | 2.52 | 1.95 | 35.14 | 17.29 | 0 | 8 | 9.9 | 10.89 |
| 01:28 | 2 | 15 | 83 | 38,460 | 0.19 | 0.08 | 1.85 | 24.78 | 19.48 | 0 | 8 | 11.98 | 13.18 |
| 01:27 | 2 | 15 | 83 | 38,460 | 0.2 | 0.49 | 1.89 | 16.05 | 26.9 | 0 | 7.14 | 10.59 | 11.65 |
| 01:26 | 2 | 15 | 83 | 38,460 | 0.2 | 0 | 1.92 | 26.66 | 20.83 | 0 | 6.29 | 9.9 | 10.89 |
| 01:25 | 2 | 15 | 83 | 38,460 | 0.19 | 0 | 1.77 | 21.74 | 19.08 | 0 | 8.86 | 12.67 | 13.94 |
| 01:24 | 2 | 15 | 83 | 38,460 | 0.19 | 0.26 | 1.93 | 21.98 | 21.68 | 0 | 7.14 | 11.99 | 13.19 |
| 01:23 | 2 | 15 | 83 | 38,460 | 0.2 | 0.86 | 1.92 | 25.46 | 20.05 | 0 | 6.29 | 10.6 | 11.66 |
| 01:22 | 2 | 15 | 83 | 38,460 | 0.19 | 1.79 | 1.83 | 26.4 | 30.03 | 0 | 7.14 | 10.6 | 11.66 |
| 01:21 | 2 | 15.1 | 83 | 38,460 | 0.2 | 0.15 | 1.68 | 22.47 | 25.83 | 0 | 7.14 | 11.29 | 12.42 |
| 01:20 | 2 | 15 | 83 | 38,460 | 0.2 | 0 | 1.78 | 23.25 | 18.68 | 0 | 7.14 | 10.61 | 11.67 |
| 01:19 | 2 | 15 | 83 | 38,460 | 0.18 | 0.13 | 1.61 | 22.23 | 29.09 | 0 | 5.43 | 10.61 | 11.67 |
| 01:18 | 2 | 15 | 83 | 38,460 | 0.18 | 0.34 | 1.75 | 22.23 | 22.66 | 0 | 7.14 | 10.61 | 11.67 |
| 01:17 | 2 | 15.1 | 83 | 38,460 | 0.19 | 2.24 | 1.94 | 26.54 | 29.66 | 0 | 7.14 | 11.3 | 12.43 |
| 01:16 | 2 | 15.1 | 83 | 38,460 | 0.19 | 0.8 | 1.96 | 26.07 | 25.45 | 0 | 7.14 | 10.61 | 11.67 |
| 01:15 | 2 | 15.1 | 83 | 38,460 | 0.2 | 0.47 | 1.94 | 21.64 | 24.14 | 0 | 7.14 | 12 | 13.2 |